Regional Weather Roundup
Issued by NWS

Home | Current Version | Previous Version | Text Only | Print | Product List | Glossary On
Versions: 1 2 3 4 5 6 7 8 9 10 11 12 13 14 15 16 17 18 19 20 21 22 23 24 25 26 27 28 29 30 31 32 33 34 35 36 37 38 39 40 41 42 43 44 45 46 47 48 49 50
000
ASUS44 KFWD 301815
RWRTX
NORTH TEXAS HOURLY WEATHER ROUNDUP
NATIONAL WEATHER SERVICE FORT WORTH TX
100 PM CDT TUE SEP 30 2014

NOTE: "FAIR" INDICATES FEW OR NO CLOUDS BELOW 12,000 FEET WITH NO
SIGNIFICANT WEATHER AND/OR OBSTRUCTIONS TO VISIBILITY.

TXZ118-119-301900-
DALLAS/FORT WORTH METROPLEX

CITY           SKY/WX    TMP DP  RH WIND       PRES   REMARKS
DFW AIRPORT    PTSUNNY   87  65  47 S9        29.86F
6HR MIN TEMP:  70; 6HR MAX TEMP:  87;

DALLAS LOVE    PTSUNNY   87  67  51 VRB7      29.86F HX  90
6HR MIN TEMP:  72; 6HR MAX TEMP:  87;

FTW MEACHAM    MOSUNNY   89  63  41 S12       29.85F HX  90
6HR MIN TEMP:  70; 6HR MAX TEMP:  89;

DAL-EXECUTIVE  PTSUNNY   91  65  41 VRB7      29.86F HX  93
6HR MIN TEMP:  68; 6HR MAX TEMP:  91;

FTW-ALLIANCE   PTSUNNY   89  64  43 S10G17    29.86F HX  90
6HR MIN TEMP:  67; 6HR MAX TEMP:  89;

FTW-NAS-JRB    MOSUNNY   90  60  36 VRB5      29.90F
6HR MIN TEMP:  73; 6HR MAX TEMP:  91;

FTW-SPINKS     PTSUNNY   86  63  45 S6        29.88F
ARLINGTON      MOSUNNY   88  64  44 SE12G18   29.86F
6HR MIN TEMP:  65; 6HR MAX TEMP:  88;

GRAND PRAIRIE  SUNNY     84  64  51 MISG      29.87F
ADDISON        PTSUNNY   86  66  51 S8        29.88F
MESQUITE       PTSUNNY   88  64  45 SE7       29.87F
LANCASTER      SUNNY     87  64  46 S8        29.87F
6HR MIN TEMP:  64; 6HR MAX TEMP:  87;

$$

TXZ091>094-102>105-117-120-121-131>134-301900-
NORTH CENTRAL TEXAS

CITY           SKY/WX    TMP DP  RH WIND       PRES   REMARKS
SHRMAN/DENISON CLOUDY    82  67  60 SW6       29.89F
6HR MIN TEMP:  66; 6HR MAX TEMP:  83;

GAINESVILLE    PTSUNNY   83  66  56 SE6       29.89F
6HR MIN TEMP:  63; 6HR MAX TEMP:  85;

BOWIE          MOSUNNY   85  61  44 S6        29.87F
6HR MIN TEMP:  64; 6HR MAX TEMP:  86;

BRIDGEPORT     MOSUNNY   88  55  32 SE8       29.88F
6HR MIN TEMP:  61; 6HR MAX TEMP:  88;

DECATUR        MOSUNNY   85  59  41 SE8       29.88F
6HR MIN TEMP:  67; 6HR MAX TEMP:  86;

DENTON         PTSUNNY   86  63  45 S8        29.86F
6HR MIN TEMP:  63; 6HR MAX TEMP:  87;

MCKINNEY       PTSUNNY   83  67  58 SW8       29.87F
6HR MIN TEMP:  64; 6HR MAX TEMP:  84;

GREENVILLE     PTSUNNY   88  64  45 S9        29.87F
ROCKWALL       PTSUNNY   85  69  57 S3        29.86F
6HR MIN TEMP:  66; 6HR MAX TEMP:  86;

TERRELL        PTSUNNY   87  68  52 SW8       29.87F HX  90
6HR MIN TEMP:  67; 6HR MAX TEMP:  88;

WAXAHACHIE     SUNNY     88  63  43 SE7       29.88F
6HR MIN TEMP:  67; 6HR MAX TEMP:  88;

CLEBURNE       SUNNY     86  63  45 S9        29.88F
GRANBURY       MOSUNNY   89  57  34 SE6       29.87F
6HR MIN TEMP:  67; 6HR MAX TEMP:  90;

$$

TXZ083>090-098>101-113>116-127>130-139>142-154-155-301900-
WESTERN NORTH TEXAS

CITY           SKY/WX    TMP DP  RH WIND       PRES   REMARKS
WICHITA FALLS  MOSUNNY   89  59  36 S15       29.84F
6HR MIN TEMP:  63; 6HR MAX TEMP:  89;

WF-KICKAPOO    SUNNY     88  55  32 S10G20    29.86F
6HR MIN TEMP:  66; 6HR MAX TEMP:  88;

VERNON         SUNNY     88  57  35 SW15G21   29.84F
6HR MIN TEMP:  64; 6HR MAX TEMP:  88;

ABILENE        SUNNY     86  59  39 S15G23    29.88F
6HR MIN TEMP:  65; 6HR MAX TEMP:  87;

ABILENE-DYESS  MOSUNNY   87  60  40 S20G25    29.86F
6HR MIN TEMP:  62; 6HR MAX TEMP:  87;

BRECKENRIDGE   MOSUNNY   89  55  31 SE12G17   29.86F HAZE
6HR MIN TEMP:  65; 6HR MAX TEMP:  89;

GRAHAM         SUNNY     87  54  31 SE9       29.84F
6HR MIN TEMP:  66; 6HR MAX TEMP:  89;

MINERAL WELLS  SUNNY     87  56  34 MISG      29.85F
6HR MIN TEMP:  65; 6HR MAX TEMP:  88;

STEPHENVILLE   SUNNY     87  56  35 SE6       29.91F
6HR MIN TEMP:  62; 6HR MAX TEMP:  87;

COMANCHE       MOSUNNY   88  56  33 S10       29.89F
6HR MIN TEMP:  60; 6HR MAX TEMP:  89;

BROWNWOOD      SUNNY     84  59  42 S10G22    29.89F
COLEMAN        SUNNY     87  57  35 SE13      29.89F
6HR MIN TEMP:  60; 6HR MAX TEMP:  87;

BRADY          SUNNY     86  59  39 SE12      29.89F
$$

TXZ143>147-156>162-174-175-301900-
CENTRAL TEXAS

CITY           SKY/WX    TMP DP  RH WIND       PRES   REMARKS
WACO           PTSUNNY   87  66  49 S6        29.86F
6HR MIN TEMP:  64; 6HR MAX TEMP:  88;

WACO-TSTC      PTSUNNY   84  66  54 S5        29.87F
WACO-MCGREGOR  MOSUNNY   90  63  40 S12       29.87F HX  90
6HR MIN TEMP:  64; 6HR MAX TEMP:  90;

HILLSBORO      SUNNY     87  64  46 SE8       29.87F
6HR MIN TEMP:  68; 6HR MAX TEMP:  87; 6HR PCP:  0.03;

CORSICANA      MOSUNNY   87  67  51 S9        29.87F HX  90
6HR MIN TEMP:  70; 6HR MAX TEMP:  88;

MEXIA          LGT RAIN  80  71  74 CALM      29.87F
6HR MIN TEMP:  67; 6HR MAX TEMP:  84;

HEARNE         MOSUNNY   86  70  57 E3        29.87F HX  90
6HR MIN TEMP:  69; 6HR MAX TEMP:  86;

CAMERON        MOSUNNY   88  69  53 SE6       29.86F HX  93
6HR MIN TEMP:  66; 6HR MAX TEMP:  88;

TEMPLE         PTSUNNY   86  63  45 S10       29.87F
6HR MIN TEMP:  63; 6HR MAX TEMP:  86;

KILLEEN        MOSUNNY   88  63  42 VRB7      29.88F
KILLEEN-SKYLRK SUNNY     84  63  48 SE7       29.88F
6HR MIN TEMP:  63; 6HR MAX TEMP:  88;

GATESVILLE     MOSUNNY   86  61  42 S5        29.90F
HAMILTON       SUNNY     87  56  35 SE6G18    29.90F
6HR MIN TEMP:  62; 6HR MAX TEMP:  87;

LAMPASAS       SUNNY     84  64  51 E7        29.88F
6HR MIN TEMP:  61; 6HR MAX TEMP:  85;

$$

TXZ095>097-106>112-122>126-135>138-148>153-164>167-301900-
EAST TEXAS

CITY           SKY/WX    TMP DP  RH WIND       PRES   REMARKS
PARIS          PTSUNNY   82  64  54 S7        29.90F
6HR MIN TEMP:  68; 6HR MAX TEMP:  82;

SULPHUR SPRNGS MOSUNNY   88  65  46 S12       29.90F
6HR MIN TEMP:  66; 6HR MAX TEMP:  88;

MOUNT PLEASANT MOSUNNY   86  65  50 SE9       29.89F
6HR MIN TEMP:  66; 6HR MAX TEMP:  86;

GILMER         MOSUNNY   86  68  54 S3        29.89F
MINEOLA        PTSUNNY   84  68  58 SE6       29.89F
TYLER          PTSUNNY   86  69  56 SW5       29.88F HX  90
6HR MIN TEMP:  69; 6HR MAX TEMP:  86;

LONGVIEW       PTSUNNY   87  66  49 S5        29.87F
6HR MIN TEMP:  70; 6HR MAX TEMP:  88;

MARSHALL       MOSUNNY   91  68  46 SE6       29.90F HX  95
6HR MIN TEMP:  71; 6HR MAX TEMP:  91;

ATHENS         PTSUNNY   86  68  54 S8        29.87F
PALESTINE      MOSUNNY   86  70  59 SE3       29.89F HX  90
JACKSONVILLE   PTSUNNY   85  68  58 S7        29.91F
HENDERSON      PTSUNNY   85  67  54 S3        29.89F
6HR MIN TEMP:  66; 6HR MAX TEMP:  87;

NACOGDOCHES    PTSUNNY   84  68  58 SE9       29.88F
6HR MIN TEMP:  68; 6HR MAX TEMP:  88;

LUFKIN         PTSUNNY   88  70  55 SE5       29.87F HX  93
6HR MIN TEMP:  72; 6HR MAX TEMP:  89;

$$

SUPPLEMENTAL OBSERVATIONS (CENTRAL)

CITY           SKY/WX    TMP DP  RH WIND       PRES   REMARKS
LAKE TEXOMA      N/A     82  66  57 S2          N/A
CADDO GRASSLND   N/A     84  66  54 S6          N/A
PAT MAYSE LAKE   N/A     81  68  65 SE6         N/A
ATHENS           N/A     88  66  48 SE8G16      N/A  HX  90
PALESTINE        N/A     88  70  55 S3          N/A  HX  92
LAKE LIMESTONE   N/A     88  68  51 SE6         N/A  HX  91
MCGREGOR         N/A     90  63  40 S6G14       N/A  HX  90
TEMPLE           N/A     88  64  45 S6          N/A
$$

SUPPLEMENTAL OBSERVATIONS (WEST)

CITY           SKY/WX    TMP DP  RH WIND       PRES   REMARKS
POSSUM KINGDOM   N/A     90  55  31 S10         N/A


USA.gov is the U.S. government's official web portal to all federal, state and local government web resources and services.